Minot AFB, ND

10:07 PM CDT on October 18, 2019 (GMT -0500)
Minot Air Force Base

Weather History for KMIB - August, 2019

Change the Weather History Date:

Thursday, August 15, 2019

  Actual Average Record
Temperature  
Mean Temperature 67 °F -  
Max Temperature 78 °F 79 °F 100 °F (2015)
Min Temperature 56 °F 53 °F 44 °F (2007)
Cooling Degree Days 2    
Growing Degree Days 17 (Base 50)    
Moisture  
Dew Point 55 °F    
Average Humidity 73    
Maximum Humidity 97    
Minimum Humidity 34    
Precipitation  
Precipitation 0.12 in - - ()
Sea Level Pressure  
Sea Level Pressure 29.88 in    
Wind  
Wind Speed 6 mph (WNW)    
Max Wind Speed 13 mph    
Max Gust Speed 17 mph    
Visibility 10 miles    
Events Rain    
Averages and records for this station are not official NWS values.
T = Trace of Precipitation, MM = Missing Value Source: NWS Daily Summary

Daily Weather History Graph

Daily Weather History Graph

Search for Another Location

Airport or City:

Astronomy

Aug. 15, 2019 Rise Set
Actual Time 6:39 AM CDT 8:59 PM CDT
Civil Twilight 6:04 AM CDT 9:34 PM CDT
Nautical Twilight 5:20 AM CDT 10:17 PM CDT
Astronomical Twilight 4:31 AM CDT 11:06 PM CDT
Moon 9:30 PM CDT (8/15) 6:31 AM CDT (8/15)
Length of Visible Light 15h 29m
Length of Day
14h 20m
Full, 100% of the Moon is Illuminated
Aug 15
Full
Aug 23
Last Quarter
Aug 30
New
Sep 5
First Quarter
Sep 13
Full

Hourly Weather History & Observations

Time (CDT) Temp. Dew Point Humidity Pressure Visibility Wind Dir Wind Speed Gust Speed Precip Events Conditions
12:56 AM 58.3 °F 53.8 °F 85% 29.95 in 10.0 mi Calm Calm - N/A   Clear
1:56 AM 56.8 °F 53.6 °F 89% 29.93 in 10.0 mi Calm Calm - N/A   Clear
2:56 AM 61.3 °F 56.1 °F 83% 29.95 in 10.0 mi West 12.7 mph - N/A   Mostly Cloudy
3:45 AM 60.8 °F 57.2 °F 88% 29.93 in 10.0 mi West 10.4 mph - N/A   Light Drizzle
3:56 AM 61.2 °F 58.1 °F 90% 29.93 in 10.0 mi WNW 10.4 mph - 0.01 in Rain Light Rain
4:01 AM 60.8 °F 59.0 °F 94% 29.93 in 10.0 mi West 10.4 mph - N/A Rain Light Rain
4:06 AM 60.8 °F 59.0 °F 94% 29.93 in 10.0 mi West 10.4 mph - N/A Rain Light Rain
4:11 AM 60.8 °F 59.0 °F 94% 29.93 in 10.0 mi West 9.2 mph - N/A Rain Rain
4:16 AM 60.8 °F 59.0 °F 94% 29.93 in 9.0 mi West 8.1 mph - N/A Rain Rain
4:56 AM 59.9 °F 58.5 °F 95% 29.91 in 10.0 mi WSW 3.5 mph - 0.11 in   Light Drizzle
4:57 AM 60.8 °F 59.0 °F 94% 29.91 in 10.0 mi Calm Calm - N/A   Mostly Cloudy
5:56 AM 59.0 °F 57.9 °F 96% 29.90 in 10.0 mi SW 4.6 mph - 0.00 in   Partly Cloudy
6:56 AM 58.1 °F 57.0 °F 96% 29.90 in 10.0 mi Calm Calm - N/A   Overcast
7:56 AM 57.9 °F 57.0 °F 97% 29.91 in 10.0 mi West 3.5 mph - N/A   Clear
8:56 AM 61.2 °F 59.7 °F 95% 29.91 in 10.0 mi West 6.9 mph - N/A   Partly Cloudy
9:56 AM 65.8 °F 58.8 °F 78% 29.90 in 10.0 mi WNW 8.1 mph - N/A   Clear
10:56 AM 67.8 °F 58.1 °F 71% 29.90 in 10.0 mi WNW 8.1 mph - N/A   Partly Cloudy
11:56 AM 73.0 °F 54.3 °F 52% 29.89 in 10.0 mi NNW 10.4 mph - N/A   Clear
12:56 PM 74.7 °F 52.5 °F 46% 29.89 in 10.0 mi NNW 10.4 mph - N/A   Clear
1:56 PM 76.1 °F 50.7 °F 41% 29.86 in 10.0 mi WNW 10.4 mph 17.3 mph N/A   Partly Cloudy
2:56 PM 76.6 °F 49.8 °F 39% 29.84 in 10.0 mi NNW 9.2 mph - N/A   Partly Cloudy
3:56 PM 77.7 °F 50.7 °F 39% 29.83 in 10.0 mi NW 9.2 mph - N/A   Clear
4:56 PM 76.8 °F 48.6 °F 37% 29.83 in 10.0 mi NW 8.1 mph - N/A   Partly Cloudy
5:56 PM 78.3 °F 47.5 °F 34% 29.81 in 10.0 mi NW 8.1 mph - N/A   Clear
6:56 PM 75.7 °F 50.4 °F 41% 29.81 in 10.0 mi WNW 9.2 mph - N/A   Partly Cloudy
7:56 PM 74.7 °F 52.5 °F 46% 29.82 in 10.0 mi West 11.5 mph - N/A   Partly Cloudy
8:56 PM 67.3 °F 55.0 °F 65% 29.82 in 10.0 mi West 5.8 mph - N/A   Clear
9:56 PM 63.7 °F 54.9 °F 73% 29.83 in 10.0 mi West 8.1 mph - N/A   Mostly Cloudy
10:56 PM 60.3 °F 52.3 °F 75% 29.83 in 10.0 mi West 4.6 mph - N/A   Clear
11:56 PM 58.6 °F 52.5 °F 80% 29.83 in 10.0 mi Calm Calm - N/A   Clear